Location: Newark
(34.1333°N, 7.9667°W)
Time: 18:46:00
(UTC+00:00)

Explorer 7 - All Passes

Search period start: 18 June 2021 00:00
Search period end: 28 June 2021 00:00
Orbit: 484 x 677 km, 50.3° (Epoch: 18 June)

Date Brightness Start Highest point End Pass type
(mag) Time Alt. Az. Time Alt. Az. Time Alt. Az.
18 Jun - 01:30:02 10° N 01:30:57 10° N 01:31:51 10° NNE visible
18 Jun - 03:09:40 10° NNW 03:13:01 20° NNE 03:16:14 10° ENE visible
18 Jun - 04:49:38 10° NW 04:54:03 85° SW 04:58:09 10° SE visible
18 Jun - 20:26:22 10° SSW 20:31:01 45° SE 20:35:40 10° ENE visible
18 Jun - 22:07:17 10° W 22:11:42 33° NNW 22:16:04 10° NNE visible
18 Jun - 23:51:19 10° NW 23:53:27 13° NNW 23:55:34 10° NNE visible
19 Jun - 01:34:11 10° NNW 01:35:46 12° N 01:37:21 10° NNE visible
19 Jun - 03:13:44 10° NNW 03:17:38 27° NNE 03:21:19 10° E visible
19 Jun - 04:54:06 10° WNW 04:58:19 47° SW 05:02:16 10° SSE daylight
19 Jun - 18:54:33 10° SE 18:55:21 10° ESE 18:56:09 10° ESE daylight
19 Jun - 20:30:25 10° SW 20:35:17 76° SE 20:40:09 10° NE visible
19 Jun - 22:12:17 10° W 22:16:16 24° NNW 22:20:11 10° NNE visible
19 Jun - 23:56:45 10° NNW 23:58:15 11° N 23:59:45 10° NNE visible
20 Jun - 01:38:13 10° NNW 01:40:34 14° NNE 01:42:51 10° NE visible
20 Jun - 03:17:52 10° NW 03:22:10 40° NE 03:26:11 10° ESE visible
20 Jun - 04:58:49 10° WNW 05:02:30 27° SW 05:05:59 10° S daylight
20 Jun - 18:56:07 10° S 18:59:26 19° SE 19:02:47 10° E daylight
20 Jun - 20:34:45 10° WSW 20:39:37 68° NW 20:44:29 10° NE visible
20 Jun - 22:17:30 10° WNW 22:20:54 18° NNW 22:24:17 10° NNE visible
21 Jun - 00:01:55 10° NNW 00:03:05 11° N 00:04:15 10° NNE visible
21 Jun - 01:42:15 10° NNW 01:45:18 17° NNE 01:48:14 10° ENE visible
21 Jun - 03:22:04 10° NW 03:26:36 65° NE 03:30:49 10° ESE visible
21 Jun - 05:04:04 10° W 05:06:37 15° SW 05:09:04 10° SSW daylight
21 Jun - 18:59:20 10° SSW 19:03:34 31° SE 19:07:52 10° ENE daylight
21 Jun - 20:39:22 10° WSW 20:44:03 44° NW 20:48:43 10° NE visible
21 Jun - 22:22:51 10° NW 22:25:37 15° NNW 22:28:22 10° NNE visible
22 Jun - 00:06:30 10° NNW 00:07:55 11° N 00:09:20 10° NNE visible
22 Jun - 01:46:18 10° NNW 01:49:58 22° NNE 01:53:28 10° ENE visible
22 Jun - 03:26:25 10° NW 03:30:57 75° SW 03:35:10 10° SE visible
22 Jun - 19:03:06 10° SSW 19:07:47 51° SE 19:12:32 10° ENE daylight
22 Jun - 20:44:13 10° W 20:48:33 31° NNW 20:52:53 10° NNE visible
22 Jun - 22:28:16 10° NW 22:30:24 13° N 22:32:30 10° NNE visible
23 Jun - 00:10:43 10° NNW 00:12:44 12° N 00:14:44 10° NE visible
23 Jun - 01:50:24 10° NNW 01:54:33 31° NNE 01:58:30 10° E visible
23 Jun - 03:30:55 10° WNW 03:35:12 42° SW 03:39:12 10° SSE visible
23 Jun - 17:30:21 10° SE 17:32:06 12° SE 17:33:52 10° ESE daylight
23 Jun - 19:07:13 10° SW 19:12:03 85° SE 19:16:59 10° NE daylight
23 Jun - 20:49:16 10° WNW 20:53:08 23° NNW 20:56:59 10° NNE visible
23 Jun - 22:33:36 10° NNW 22:35:13 11° N 22:36:48 10° NNE visible
24 Jun - 00:14:49 10° NNW 00:17:31 15° NNE 00:20:09 10° NE visible
24 Jun - 01:54:33 10° NW 01:59:04 46° NE 02:03:18 10° ESE visible
24 Jun - 03:35:42 10° WNW 03:39:21 24° SW 03:42:49 10° S visible
24 Jun - 17:32:40 10° S 17:36:11 21° SE 17:39:47 10° E daylight
24 Jun - 19:11:38 10° WSW 19:16:25 61° NW 19:21:17 10° NE daylight
24 Jun - 20:54:30 10° WNW 20:57:48 18° NNW 21:01:05 10° NNE visible
24 Jun - 22:38:36 10° NNW 22:40:02 11° N 22:41:28 10° NNE visible
25 Jun - 00:18:53 10° NNW 00:22:14 19° NNE 00:25:29 10° ENE visible
25 Jun - 01:58:48 10° NW 02:03:29 74° NE 02:07:51 10° SE visible
25 Jun - 03:41:07 10° W 03:43:26 14° SW 03:45:42 10° SSW night (unlit)
25 Jun - 17:36:02 10° SSW 17:40:19 34° SE 17:44:44 10° ENE daylight
25 Jun - 19:16:18 10° WSW 19:20:51 40° NW 19:25:30 10° NE daylight
25 Jun - 20:59:51 10° NW 21:02:32 14° NNW 21:05:12 10° NNE visible
25 Jun - 22:43:07 10° NNW 22:44:52 12° N 22:46:36 10° NNE visible
26 Jun - 00:22:57 10° NNW 00:26:53 25° NNE 00:30:38 10° E visible
26 Jun - 02:03:10 10° NW 02:07:48 66° SW 02:12:08 10° SE visible
26 Jun - 17:39:53 10° SSW 17:44:32 58° SE 17:49:21 10° ENE daylight
26 Jun - 19:21:12 10° W 19:25:23 28° NNW 19:29:38 10° NNE daylight
26 Jun - 21:05:15 10° NW 21:07:19 12° N 21:09:23 10° NNE visible
26 Jun - 22:47:19 10° NNW 22:49:41 13° NNE 22:51:59 10° NE visible
27 Jun - 00:27:04 10° NW 00:31:27 34° NNE 00:35:36 10° E visible
27 Jun - 02:07:43 10° WNW 02:12:01 38° SW 02:16:05 10° SSE visible
27 Jun - 16:06:37 10° SSE 16:08:51 13° SE 16:11:08 10° E daylight
27 Jun - 17:44:05 10° SW 17:48:50 87° NW 17:53:45 10° NE daylight
27 Jun - 19:26:17 10° WNW 19:29:59 21° NNW 19:33:44 10° NNE daylight
27 Jun - 21:10:29 10° NNW 21:12:08 11° N 21:13:46 10° NNE visible
27 Jun - 22:51:26 10° NNW 22:54:26 16° NNE 22:57:22 10° NE visible
